K3BAK-13 Weather Reports


time (UTC)temp
C
wind
direction
speed
KPH
gust
KPH
rain 1hr
cm
rain 24hr
cm
rain mn
cm
humidity
%
barometer
mb
20260504050559 10 214 1.6 4.8 0.00 0.00 0.00 55 1014.4
20260504045602 9 0 0.0 3.2 0.00 0.00 0.00 55 1014.5
20260504045059 9 220 0.0 4.8 0.00 0.00 0.00 55 1014.5
20260504044621 9 208 0.0 4.8 0.00 0.00 0.00 55 1014.5
20260504044059 9 227 0.0 6.4 0.00 0.00 0.00 55 1014.6
20260504043559 9 203 1.6 8.0 0.00 0.00 0.00 55 1014.6
20260504043101 9 230 1.6 8.0 0.00 0.00 0.00 56 1014.5
20260504042602 9 198 3.2 8.0 0.00 0.00 0.00 55 1014.5
20260504042058 9 229 3.2 6.4 0.00 0.00 0.00 55 1014.5
20260504041559 8 229 3.2 4.8 0.00 0.00 0.00 56 1014.6
20260504041058 8 217 0.0 4.8 0.00 0.00 0.00 57 1014.6
20260504040558 8 213 1.6 4.8 0.00 0.00 0.00 56 1014.5
20260504040113 8 233 1.6 3.2 0.00 0.00 0.00 56 1014.5
20260504035602 8 158 0.0 3.2 0.00 0.00 0.00 57 1014.5
20260504035059 8 227 0.0 3.2 0.00 0.00 0.00 57 1014.5
20260504034615 8 0 0.0 3.2 0.00 0.00 0.00 57 1014.5
20260504034059 8 247 0.0 3.2 0.00 0.00 0.00 57 1014.6
20260504033602 8 0 0.0 3.2 0.00 0.00 0.00 57 1014.5
20260504033058 8 206 0.0 3.2 0.00 0.00 0.00 57 1014.4
20260504032601 8 210 0.0 1.6 0.00 0.00 0.00 57 1014.4
20260504032059 8 203 0.0 1.6 0.00 0.00 0.00 57 1014.5
20260504031559 8 0 0.0 1.6 0.00 0.00 0.00 58 1014.5
20260504031058 8 0 0.0 1.6 0.00 0.00 0.00 57 1014.5
20260504030647 8 0 0.0 0.0 0.00 0.00 0.00 57 1014.5
20260504030059 9 0 0.0 0.0 0.00 0.00 0.00 57 1014.5
20260504025601 9 0 0.0 0.0 0.00 0.00 0.00 57 1014.5
20260504025058 9 0 0.0 0.0 0.00 0.00 0.00 57 1014.6
20260504024605 9 0 0.0 0.0 0.00 0.00 0.00 56 1014.6
20260504024058 9 0 0.0 0.0 0.00 0.00 0.00 56 1014.7
20260504023601 9 0 0.0 0.0 0.00 0.00 0.00 57 1014.7
20260504023100 10 0 0.0 0.0 0.00 0.00 0.00 55 1014.8
20260504022558 10 0 0.0 0.0 0.00 0.00 0.00 55 1014.7
20260504022100 10 0 0.0 3.2 0.00 0.00 0.00 54 1014.6
20260504021602 10 0 0.0 3.2 0.00 0.00 0.00 54 1014.8
20260504021058 10 233 0.0 3.2 0.00 0.00 0.00 54 1014.9
20260504020559 10 201 0.0 1.6 0.00 0.00 0.00 53 1014.9
20260504020103 10 203 0.0 1.6 0.00 0.00 0.00 54 1014.7
20260504015559 10 0 0.0 0.0 0.00 0.00 0.00 53 1014.8
20260504015059 10 0 0.0 0.0 0.00 0.00 0.00 53 1014.8
20260504014558 10 0 0.0 0.0 0.00 0.00 0.00 54 1014.7
20260504014058 10 0 0.0 0.0 0.00 0.00 0.00 53 1014.7
20260504013558 10 0 0.0 0.0 0.00 0.00 0.00 53 1014.6
20260504013116 10 0 0.0 0.0 0.00 0.00 0.00 53 1014.6
20260504012558 10 0 0.0 0.0 0.00 0.00 0.00 53 1014.6
20260504012058 11 0 0.0 0.0 0.00 0.00 0.00 51 1014.5
20260504011603 11 0 0.0 0.0 0.00 0.00 0.00 51 1014.5
20260504011057 11 0 0.0 0.0 0.00 0.00 0.00 51 1014.6
20260504010558 11 0 0.0 1.6 0.00 0.00 0.00 49 1014.5
20260504010107 11 0 0.0 1.6 0.00 0.00 0.00 49 1014.5
20260504005559 11 0 0.0 3.2 0.00 0.00 0.00 49 1014.5
20260504005059 12 132 0.0 3.2 0.00 0.00 0.00 48 1014.5
20260504004610 12 0 0.0 4.8 0.00 0.00 0.00 47 1014.5
20260504004059 12 222 0.0 6.4 0.00 0.00 0.00 46 1014.4
20260504003558 12 223 3.2 6.4 0.00 0.00 0.00 46 1014.4
20260504003058 12 225 1.6 3.2 0.00 0.00 0.00 45 1014.5
20260504002558 12 211 0.0 3.2 0.00 0.00 0.00 45 1014.5
20260504002058 12 217 1.6 3.2 0.00 0.00 0.00 45 1014.5
20260504001605 12 0 0.0 3.2 0.00 0.00 0.00 45 1014.5
20260504001058 12 241 0.0 9.7 0.00 0.00 0.00 45 1014.4
20260504000559 13 0 0.0 9.7 0.00 0.00 0.00 44 1014.4
20260504000114 13 233 1.6 6.4 0.00 0.00 0.00 44 1014.5
20260503235558 13 20 3.2 6.4 0.00 0.00 0.00 44 1014.4
20260503235101 13 37 1.6 6.4 0.00 0.00 0.00 43 1014.5
20260503234607 13 176 1.6 17.7 0.00 0.00 0.00 42 1014.4
20260503234100 13 248 6.4 17.7 0.00 0.00 0.00 42 1014.6
20260503233558 13 220 4.8 12.9 0.00 0.00 0.00 42 1014.5
20260503233111 13 234 3.2 9.7 0.00 0.00 0.00 41 1014.5
20260503232558 13 219 1.6 11.3 0.00 0.00 0.00 41 1014.5
20260503232058 14 259 3.2 11.3 0.00 0.00 0.00 41 1014.5
20260503231609 14 229 4.8 20.9 0.00 0.00 0.00 41 1014.6
20260503231059 14 286 8.0 20.9 0.00 0.00 0.00 41 1014.6
20260503230558 14 223 4.8 11.3 0.00 0.00 0.00 40 1014.6
20260503230108 15 250 3.2 14.5 0.00 0.00 0.00 40 1014.6
20260503225558 15 219 4.8 14.5 0.00 0.00 0.00 41 1014.6
20260503225058 15 215 4.8 12.9 0.00 0.00 0.00 39 1014.6
20260503224608 15 205 3.2 12.9 0.00 0.00 0.00 39 1014.6
20260503224059 15 197 4.8 11.3 0.00 0.00 0.00 39 1014.8
20260503223559 15 85 1.6 9.7 0.00 0.00 0.00 40 1014.7
20260503223101 15 219 3.2 9.7 0.00 0.00 0.00 40 1014.9
20260503222557 15 240 3.2 14.5 0.00 0.00 0.00 39 1014.8
20260503222058 15 359 4.8 16.1 0.00 0.00 0.00 40 1014.8
20260503221612 15 236 6.4 17.7 0.00 0.00 0.00 38 1015.0
20260503221059 15 359 4.8 17.7 0.00 0.00 0.00 39 1014.9
20260503220559 15 266 1.6 17.7 0.00 0.00 0.00 40 1014.7
20260503220122 14 239 4.8 17.7 0.00 0.00 0.00 40 1014.9
20260503215558 15 224 6.4 17.7 0.00 0.00 0.00 39 1015.0
20260503215058 15 260 8.0 14.5 0.00 0.00 0.00 40 1015.0
20260503214608 15 232 1.6 12.9 0.00 0.00 0.00 40 1014.8
20260503214058 15 210 3.2 14.5 0.00 0.00 0.00 40 1014.9
20260503213558 15 226 4.8 14.5 0.00 0.00 0.00 41 1014.9
20260503213110 15 305 4.8 16.1 0.00 0.00 0.00 40 1014.8
20260503212558 15 323 4.8 16.1 0.00 0.00 0.00 42 1014.7
20260503212058 15 250 3.2 12.9 0.00 0.00 0.00 40 1014.7
20260503211559 15 35 4.8 19.3 0.00 0.00 0.00 38 1014.8
20260503211058 15 11 6.4 19.3 0.00 0.00 0.00 39 1014.7
20260503210558 15 303 3.2 11.3 0.00 0.00 0.00 40 1014.8
20260503205559 14 259 3.2 16.1 0.00 0.00 0.00 42 1015.1
20260503205059 14 244 3.2 16.1 0.00 0.00 0.00 41 1015.1
20260503204605 14 240 6.4 16.1 0.00 0.00 0.00 41 1015.2
20260503204058 14 337 4.8 22.5 0.00 0.00 0.00 42 1014.9
20260503203558 14 290 4.8 22.5 0.00 0.00 0.00 42 1015.2
20260503203101 14 8 6.4 17.7 0.00 0.00 0.00 41 1015.3
20260503202602 14 233 4.8 11.3 0.00 0.00 0.00 43 1015.3
20260503202059 14 221 4.8 25.7 0.00 0.00 0.00 41 1015.4
20260503201559 14 221 8.0 25.7 0.00 0.00 0.00 40 1015.4
20260503201059 15 193 8.0 22.5 0.00 0.00 0.00 40 1015.3
20260503200558 15 219 4.8 17.7 0.00 0.00 0.00 41 1015.4
20260503195558 15 276 3.2 16.1 0.00 0.00 0.00 41 1015.5
20260503195057 14 265 4.8 16.1 0.00 0.00 0.00 39 1015.6
20260503194604 14 30 3.2 14.5 0.00 0.00 0.00 40 1015.7
20260503194102 13 319 6.4 14.5 0.00 0.00 0.00 41 1015.9
20260503193603 14 246 4.8 12.9 0.00 0.00 0.00 43 1015.7
20260503193100 14 230 4.8 12.9 0.00 0.00 0.00 42 1015.8
20260503192602 13 217 3.2 12.9 0.00 0.00 0.00 44 1015.8
20260503192101 13 264 3.2 12.9 0.00 0.00 0.00 41 1015.9
20260503191602 13 330 4.8 24.1 0.00 0.00 0.00 41 1016.0
20260503191058 13 317 6.4 24.1 0.00 0.00 0.00 40 1016.0
20260503190600 14 251 6.4 14.5 0.00 0.00 0.00 41 1016.1
20260503190101 13 229 6.4 14.5 0.00 0.00 0.00 44 1016.2
20260503185558 13 235 6.4 14.5 0.00 0.00 0.00 43 1016.2
20260503185102 13 274 4.8 14.5 0.00 0.00 0.00 42 1016.3
20260503184606 13 212 4.8 14.5 0.00 0.00 0.00 44 1016.4
20260503184101 12 174 4.8 14.5 0.00 0.00 0.00 44 1016.4
20260503183558 13 254 4.8 14.5 0.00 0.00 0.00 44 1016.5
20260503183058 13 282 6.4 16.1 0.00 0.00 0.00 43 1016.5
20260503182557 13 256 3.2 16.1 0.00 0.00 0.00 46 1016.6
20260503182101 13 240 4.8 19.3 0.00 0.00 0.00 45 1016.7
20260503181604 12 16 3.2 19.3 0.00 0.00 0.00 45 1016.7
20260503181101 13 290 8.0 19.3 0.00 0.00 0.00 43 1016.8
20260503180604 13 303 4.8 16.1 0.00 0.00 0.00 43 1016.8
20260503180118 13 206 6.4 22.5 0.00 0.00 0.00 44 1016.7
20260503175602 13 224 4.8 22.5 0.00 0.00 0.00 45 1016.9
20260503175101 12 168 3.2 14.5 0.00 0.00 0.00 47 1016.8
20260503174601 12 328 6.4 14.5 0.00 0.00 0.00 44 1017.0
20260503174102 12 221 6.4 14.5 0.00 0.00 0.00 44 1017.0
20260503173558 12 316 3.2 19.3 0.00 0.00 0.00 45 1017.1
20260503173112 12 335 6.4 19.3 0.00 0.00 0.00 43 1017.2
20260503172558 12 8 4.8 19.3 0.00 0.00 0.00 44 1017.2
20260503172057 12 311 4.8 19.3 0.00 0.00 0.00 43 1017.3
20260503171600 12 237 6.4 19.3 0.00 0.00 0.00 43 1017.3
20260503171059 12 290 3.2 17.7 0.00 0.00 0.00 43 1017.3
20260503170559 12 295 4.8 17.7 0.00 0.00 0.00 48 1017.4
20260503170112 12 234 3.2 11.3 0.00 0.00 0.00 47 1017.4
20260503160117 10 184 4.8 12.9 0.00 0.00 0.00 46 1018.1
20260503150601 8 42 3.2 20.9 0.00 0.00 0.00 50 1018.3
20260503150103 8 227 4.8 11.3 0.00 0.00 0.00 52 1018.2
20260503131057 5 247 1.6 8.0 0.00 0.00 0.00 72 1018.6
20260503130600 5 223 3.2 8.0 0.00 0.00 0.00 73 1018.7
20260503110600 1 179 0.0 1.6 0.00 0.03 0.00 90 1017.9
20260503110106 0 221 0.0 1.6 0.00 0.03 0.00 90 1017.8
20260503081600 1 0 0.0 0.0 0.00 0.03 0.00 87 1017.1
20260503081102 1 0 0.0 0.0 0.00 0.03 0.00 86 1017.1
20260503080602 1 0 0.0 0.0 0.00 0.03 0.00 86 1017.1
20260503072559 1 0 0.0 0.0 0.00 0.03 0.00 87 1016.8
20260503072101 1 0 0.0 0.0 0.00 0.03 0.00 87 1016.9
20260503071612 1 0 0.0 0.0 0.00 0.03 0.00 87 1016.8
20260503071058 1 0 0.0 0.0 0.00 0.03 0.00 87 1016.8
20260503070559 1 0 0.0 0.0 0.00 0.03 0.00 88 1016.9
20260503060115 1 0 0.0 0.0 0.00 0.03 0.00 90 1016.9
20260503055059 1 0 0.0 0.0 0.00 0.03 0.00 90 1017.1
20260503054621 1 0 0.0 0.0 0.00 0.03 0.00 90 1017.1
20260503054100 1 0 0.0 0.0 0.00 0.03 0.00 90 1017.1
20260503053600 1 0 0.0 0.0 0.00 0.03 0.00 90 1017.1
20260503053100 1 0 0.0 0.0 0.00 0.03 0.00 90 1017.1